This demonstration page uses our WeatherBlox Daily Observations layout. Learn more.

36.17497, -115.13722

Hourly Observations for February 16, 2018

Temp ( °F °C ) Dew Point ( °F °C ) Humidity (%) Winds ( mph kmh ) Pressure ( in mb ) Visibility ( mi km ) Precip ( " mm )
12:53 am 00:53 Clear 48 8.9 6 -14.4 18 18 NE 5 7 30.35 1028 10 16.0934 0 0
1:53 am 01:53 Clear 45 7.2 6 -14.4 20 20 N 9 15 30.34 1027 10 16.0934 0 0
2:53 am 02:53 Clear 46 7.8 5 -15 18 18 N 5 7 30.33 1027 10 16.0934 0 0
3:53 am 03:53 Clear 44 6.7 6 -14.4 21 21 N 8 13 30.32 1027 10 16.0934 0 0
4:53 am 04:53 Clear 42 5.6 7 -13.9 23 23 N 8 13 30.34 1027 10 16.0934 0 0
5:53 am 05:53 Clear 40 4.4 8 -13.3 27 27 WNW 8 13 30.34 1027 10 16.0934 0 0
6:53 am 06:53 Sunny 41 5 8 -13.3 25 25 NNW 3 6 30.35 1028 10 16.0934 0 0
7:53 am 07:53 Sunny 42 5.6 9 -12.8 25 25 WNW 6 9 30.38 1029 10 16.0934 0 0
8:53 am 08:53 Sunny 45 7.2 12 -11.1 26 26 Calm 30.37 1028 10 16.0934 0 0
9:53 am 09:53 Sunny 49 9.4 10 -12.2 21 21 N 7 11 30.34 1028 10 16.0934 0 0
10:53 am 10:53 Sunny 51 10.6 8 -13.3 17 17 Calm 30.32 1027 10 16.0934 0 0
11:53 am 11:53 Sunny 52 11.1 8 -13.3 17 17 Calm 30.28 1025 10 16.0934 0 0
12:53 pm 12:53 Sunny 55 12.8 7 -13.9 14 14 Calm 30.23 1024 10 16.0934 0 0
1:53 pm 13:53 Sunny 56 13.3 6 -14.4 13 13 Calm 30.21 1023 10 16.0934 0 0
2:53 pm 14:53 Sunny 57 13.9 6 -14.4 13 13 ESE 3 6 30.19 1022 10 16.0934 0 0
3:53 pm 15:53 Sunny 58 14.4 6 -14.4 12 12 SSE 3 6 30.19 1022 10 16.0934 0 0
4:53 pm 16:53 Sunny 57 13.9 6 -14.4 13 13 Calm 30.18 1022 10 16.0934 0 0
5:53 pm 17:53 Clear 56 13.3 7 -13.9 14 14 Calm 30.19 1022 10 16.0934 0 0
6:53 pm 18:53 Clear 54 12.2 10 -12.2 17 17 Calm 30.2 1023 10 16.0934 0 0
7:53 pm 19:53 Clear 51 10.6 12 -11.1 21 21 WNW 6 9 30.21 1023 10 16.0934 0 0
8:53 pm 20:53 Clear 49 9.4 18 -7.8 29 29 WNW 5 7 30.22 1023 10 16.0934 0 0
9:53 pm 21:53 Clear 47 8.3 17 -8.3 30 30 WNW 7 11 30.23 1024 10 16.0934 0 0
10:53 pm 22:53 Clear 46 7.8 17 -8.3 31 31 WNW 6 9 30.22 1023 10 16.0934 0 0
11:53 pm 23:53 Clear 44 6.7 17 -8.3 34 34 NNW 5 7 30.24 1024 10 16.0934 0 0

Powered by AerisWeather